Regional Weather Roundup
Issued by NWS

Home | Current Version | Previous Version | Text Only | Print | Product List | Glossary Off
Versions: 1 2 3 4 5 6 7 8 9 10 11 12 13 14 15 16 17 18 19 20 21 22 23 24 25 26 27 28 29 30 31 32 33 34 35 36 37 38 39 40 41 42 43 44 45 46 47 48 49 50

032
ASUS43 KTOP 051959
RWRKS

WEATHER ROUNDUP FOR KANSAS
NATIONAL WEATHER SERVICE GOODLAND KS
200 PM CST FRI FEB 05 2016

NOTE:  "FAIR" INDICATES FEW OR NO CLOUDS BELOW 12,000 FEET WITH NO
SIGNIFICANT WEATHER AND/OR OBSTRUCTIONS TO VISIBILITY.

KSZ001>006-013>018-027>032-041>047-052100-
NORTHWEST KANSAS

CITY           SKY/WX    TMP DP  RH WIND       PRES   REMARKS
GOODLAND       SUNNY     35  21  56 NW20      30.27F WCI  24
HAYS           SUNNY     37  16  41 W7        30.28F
HILL CITY      SUNNY     40  27  59 W13       30.27F WCI  32
RUSSELL        SUNNY     35  21  56 W10       30.27F WCI  27
$$

KSZ061>065-074>080-084>089-052100-
SOUTHWEST KANSAS

CITY           SKY/WX    TMP DP  RH WIND       PRES   REMARKS
DODGE CITY     CLOUDY    36  12  37 N12       30.27F WCI  28
ELKHART          N/A     43  20  40 N18         N/A
GARDEN CITY    PTSUNNY   39  23  52 N15       30.27F WCI  31
GREAT BEND     MOSUNNY   37  19  48 NW8       30.28F
LIBERAL        CLOUDY    39  18  41 N18       30.24F WCI  30
$$

KSZ066>073-081>083-090>101-052100-
SOUTHEAST KANSAS

CITY           SKY/WX    TMP DP  RH WIND       PRES   REMARKS
CHANUTE        SUNNY     50  24  36 SW6       30.31F
COFFEYVILLE    SUNNY     53  23  31 S10G20    30.32F
HUTCHINSON     CLOUDY    46  18  32 CALM      30.27F
MEDICINE LODGE   N/A     48  24  39 E9        30.25F
NEWTON         PTSUNNY   43  21  42 E3        30.29F
PARSONS        SUNNY     54  25  32 SW13      30.32F
WICHITA INTL   PTSUNNY   51  23  33 S7        30.26F
WICHITA JABRA  MOSUNNY   49  22  34 W3        30.27F
WINFIELD       SUNNY     52  26  36 SW10      30.29F
$$

KSZ007>012-019>026-033>040-048>060-102>105-052100-
NORTHEAST KANSAS

CITY           SKY/WX    TMP DP  RH WIND       PRES   REMARKS
CONCORDIA      PTSUNNY   38  26  62 SW10      30.27F WCI  31
EMPORIA        SUNNY     45  22  40 VRB3      30.29F
LAWRENCE       CLOUDY    40  21  46 VRB5      30.33F
MANHATTAN      CLOUDY    44  22  41 SW9       30.28F
OLATHE IND     SUNNY     41  22  46 CALM      30.32F
OLATHE EXE     SUNNY     40  21  46 CALM      30.31F
SALINA         CLOUDY    44  20  38 SW7       30.28F
TOPEKA BILLARD PTSUNNY   41  20  43 SW5       30.32F
TOPEKA FORBES  PTSUNNY   42  22  44 S8        30.30F
$$




USA.gov is the U.S. government's official web portal to all federal, state and local government web resources and services.